Weather History for KAKR - September, 2013

Change the Weather History Date:

Saturday, September 21, 2013

  Actual Average (KCAK) Record (KCAK)
Temperature  
Mean Temperature 63 °F 61 °F  
Max Temperature 69 °F 71 °F 92 °F (1931)
Min Temperature 55 °F 51 °F 32 °F (1956)
Degree Days  
Heating Degree Days 2 5  
Month to date heating degree days 56  
Since 1 July heating degree days 76  
Cooling Degree Days 0 1  
Month to date cooling degree days 56  
Year to date cooling degree days 638  
Growing Degree Days 13 (Base 50)    
Moisture  
Dew Point 62 °F    
Average Humidity 92    
Maximum Humidity 100    
Minimum Humidity 56    
Precipitation  
Precipitation 1.71 in 0.12 in 2.21 in (1992)
Month to date precipitation 2.47  
Year to date precipitation 29.67  
Snow  
Snow 0.00 in 0.00 in - ()
Month to date snowfall 0.0  
Since 1 July snowfall 0.0  
Since 1 September snowfall 0.0  
Snow Depth -    
Sea Level Pressure  
Sea Level Pressure 29.72 in    
Wind  
Wind Speed 6 mph (WNW)    
Max Wind Speed 17 mph    
Max Gust Speed 22 mph    
Visibility 6 miles    
Events Rain    
T = Trace of Precipitation, MM = Missing Value Source: NWS Daily Summary

Daily Weather History Graph

Daily Weather History Graph

Search for Another Location

Airport or City:

Trip Planner

Search our weather history database for the weather conditions in past years. The results will help you decide how hot, cold, wet, or windy it might be!

Date:

Astronomy

Sep. 21, 2013 Rise Set
Actual Time 7:12 AM EDT 7:24 PM EDT
Civil Twilight 6:45 AM EDT 7:51 PM EDT
Nautical Twilight 6:12 AM EDT 8:23 PM EDT
Astronomical Twilight 5:40 AM EDT 8:56 PM EDT
Moon 8:32 PM EDT (9/21) 9:31 AM EDT (9/21)
Length of Visible Light 13h 06m
Length of Day
12h 11m
Waning Gibbous, 94% of the Moon is Illuminated
Sep 21
Waning Gibbous
Sep 26
Last Quarter
Oct 4
New
Oct 11
First Quarter
Oct 18
Full

Hourly Weather History & Observations

Time (EDT) Temp. Dew Point Humidity Pressure Visibility Wind Dir Wind Speed Gust Speed Precip Events Conditions
12:54 AM 68.0 °F 66.0 °F 93% 29.78 in 10.0 mi SSW 5.8 mph - N/A   Mostly Cloudy
1:21 AM 68.0 °F 66.2 °F 94% 29.79 in 9.0 mi SW 4.6 mph - N/A   Mostly Cloudy
1:43 AM 68.0 °F 66.2 °F 94% 29.78 in 8.0 mi SSW 5.8 mph - N/A   Overcast
1:54 AM 68.0 °F 66.0 °F 93% 29.76 in 8.0 mi SW 5.8 mph - N/A   Overcast
2:54 AM 68.0 °F 66.0 °F 93% 29.74 in 8.0 mi South 4.6 mph - N/A   Overcast
3:22 AM 68.0 °F 66.2 °F 94% 29.76 in 5.0 mi South 6.9 mph - 0.02 in Rain Light Rain
3:54 AM 68.0 °F 66.0 °F 93% 29.71 in 7.0 mi SSE 4.6 mph - 0.02 in Rain Light Rain
4:05 AM 66.2 °F 66.2 °F 100% 29.73 in 7.0 mi SSE 3.5 mph - 0.00 in Rain Light Rain
4:21 AM 66.2 °F 66.2 °F 100% 29.73 in 7.0 mi Calm Calm - 0.00 in Rain Light Rain
4:33 AM 66.2 °F 66.2 °F 100% 29.72 in 6.0 mi Calm Calm - 0.01 in Rain Light Rain
4:54 AM 66.9 °F 66.0 °F 97% 29.69 in 5.0 mi Calm Calm - 0.02 in Rain Light Rain
5:17 AM 66.2 °F 66.2 °F 100% 29.71 in 2.5 mi Calm Calm - 0.06 in Rain Light Rain
5:27 AM 66.2 °F 66.2 °F 100% 29.71 in 1.0 mi West 4.6 mph - 0.21 in Rain Heavy Rain
5:35 AM 66.2 °F 66.2 °F 100% 29.70 in 0.8 mi SW 4.6 mph - 0.46 in Rain Heavy Rain
5:42 AM 66.2 °F 66.2 °F 100% 29.70 in 0.8 mi WSW 11.5 mph 20.7 mph 0.61 in Rain Heavy Rain
5:50 AM 66.2 °F 64.4 °F 94% 29.71 in 1.2 mi SW 16.1 mph 20.7 mph 0.70 in Rain Heavy Rain
5:54 AM 66.9 °F 64.9 °F 93% 29.69 in 1.8 mi SW 13.8 mph 20.7 mph 0.75 in Rain Heavy Rain
6:05 AM 66.2 °F 64.4 °F 94% 29.71 in 3.0 mi West 17.3 mph 21.9 mph 0.09 in Rain Rain
6:17 AM 64.4 °F 62.6 °F 94% 29.70 in 5.0 mi NW 8.1 mph - 0.11 in Rain Light Rain
6:38 AM 64.4 °F 62.6 °F 94% 29.67 in 4.0 mi North 6.9 mph - 0.14 in Rain Rain
6:48 AM 64.4 °F 62.6 °F 94% 29.69 in 2.5 mi WNW 9.2 mph - 0.19 in Rain Rain
6:54 AM 64.9 °F 63.0 °F 93% 29.67 in 1.2 mi WNW 9.2 mph - 0.27 in Rain Heavy Rain
7:05 AM 64.4 °F 64.4 °F 100% 29.69 in 2.0 mi WNW 6.9 mph - 0.06 in Rain Rain
7:13 AM 64.4 °F 64.4 °F 100% 29.70 in 5.0 mi WNW 3.5 mph - 0.07 in Rain Light Rain
7:23 AM 64.4 °F 64.4 °F 100% 29.70 in 6.0 mi WNW 5.8 mph - 0.08 in Rain Light Rain
7:34 AM 64.4 °F 64.4 °F 100% 29.70 in 10.0 mi West 3.5 mph - 0.08 in Rain Light Rain
7:54 AM 64.9 °F 64.0 °F 97% 29.68 in 10.0 mi Calm Calm - 0.08 in Rain Light Rain
8:41 AM 64.4 °F 64.4 °F 100% 29.72 in 10.0 mi WSW 4.6 mph - 0.00 in   Overcast
8:54 AM 64.9 °F 64.0 °F 97% 29.70 in 9.0 mi WSW 4.6 mph - 0.00 in Rain Light Rain
9:08 AM 64.4 °F 64.4 °F 100% 29.72 in 4.0 mi West 6.9 mph - 0.02 in Rain Light Rain
9:15 AM 64.4 °F 64.4 °F 100% 29.72 in 3.0 mi West 5.8 mph - 0.03 in Rain Light Rain
9:32 AM 64.4 °F 62.6 °F 94% 29.72 in 2.0 mi West 5.8 mph - 0.07 in Rain Rain
9:39 AM 64.4 °F 62.6 °F 94% 29.72 in 4.0 mi West 6.9 mph - 0.08 in Rain Light Rain
9:52 AM 64.4 °F 62.6 °F 94% 29.71 in 5.0 mi Calm Calm - 0.09 in Rain Light Rain
9:54 AM 64.9 °F 63.0 °F 93% 29.69 in 6.0 mi Calm Calm - 0.09 in Rain Light Rain
10:54 AM 64.9 °F 62.1 °F 90% 29.68 in 5.0 mi ESE 3.5 mph - 0.05 in Rain Light Rain
11:52 AM 62.6 °F 60.8 °F 94% 29.71 in 2.0 mi NNW 4.6 mph - 0.12 in Rain Rain
11:54 AM 62.1 °F 60.1 °F 93% 29.69 in 1.8 mi NNW 5.8 mph - 0.14 in Rain Heavy Rain
12:03 PM 62.6 °F 60.8 °F 94% 29.70 in 1.0 mi WNW 4.6 mph - 0.07 in Rain Heavy Rain
12:13 PM 62.6 °F 60.8 °F 94% 29.70 in 2.0 mi NNE 3.5 mph - 0.11 in Rain Rain
12:26 PM 60.8 °F 59.0 °F 94% 29.71 in 1.8 mi NNW 5.8 mph - 0.18 in Rain Heavy Rain
12:43 PM 60.8 °F 57.2 °F 88% 29.72 in 2.5 mi NNW 6.9 mph - 0.25 in Rain Rain
12:52 PM 60.8 °F 59.0 °F 94% 29.72 in 3.0 mi North 4.6 mph - 0.27 in Rain Light Rain
12:54 PM 61.0 °F 59.0 °F 93% 29.71 in 3.0 mi Variable 5.8 mph - 0.27 in Rain Light Rain
1:40 PM 60.8 °F 59.0 °F 94% 29.72 in 8.0 mi WNW 6.9 mph - 0.02 in Rain Light Rain
1:47 PM 60.8 °F 57.2 °F 88% 29.72 in 8.0 mi WNW 12.7 mph 17.3 mph 0.02 in Rain Light Rain
1:51 PM 60.8 °F 57.2 °F 88% 29.72 in 9.0 mi WNW 10.4 mph 17.3 mph 0.02 in   Overcast
1:54 PM 61.0 °F 57.9 °F 90% 29.71 in 9.0 mi NW 10.4 mph 17.3 mph 0.02 in   Overcast
2:54 PM 64.0 °F 57.0 °F 78% 29.71 in 10.0 mi NW 10.4 mph - N/A   Mostly Cloudy
3:54 PM 69.1 °F 55.9 °F 63% 29.71 in 10.0 mi WNW 13.8 mph 20.7 mph N/A   Mostly Cloudy
4:54 PM 68.0 °F 52.0 °F 56% 29.71 in 10.0 mi NW 10.4 mph 19.6 mph N/A   Partly Cloudy
5:54 PM 66.9 °F 53.1 °F 61% 29.73 in 10.0 mi WNW 10.4 mph - N/A   Clear
6:54 PM 63.0 °F 55.0 °F 75% 29.75 in 10.0 mi NNW 9.2 mph - N/A   Partly Cloudy
7:35 PM 60.8 °F 55.4 °F 82% 29.78 in 10.0 mi North 9.2 mph - N/A   Mostly Cloudy
7:49 PM 60.8 °F 53.6 °F 77% 29.78 in 10.0 mi North 5.8 mph - N/A   Scattered Clouds
7:54 PM 60.1 °F 54.0 °F 80% 29.77 in 10.0 mi North 5.8 mph - N/A   Partly Cloudy
8:54 PM 59.0 °F 54.0 °F 83% 29.79 in 10.0 mi North 4.6 mph - N/A   Overcast
9:54 PM 57.9 °F 55.0 °F 90% 29.80 in 10.0 mi Calm Calm - N/A   Overcast
10:54 PM 57.0 °F 55.0 °F 93% 29.81 in 10.0 mi Calm Calm - N/A   Overcast
11:54 PM 55.0 °F 54.0 °F 96% 29.82 in 10.0 mi South 3.5 mph - N/A   Partly Cloudy